SKU324 SCEL-SCDA

Flight info

Callsign SKU324
Flight time 2h 57m
Altitude 38000
Route DONTI5B DONTI UQ802 GAXIR GAXIR5B
Aircraft A21N/M-SDE2E3FGHIRWXY/LB1

Departure

Time 2026-04-26 18:29
Airport Comodoro Arturo Merino Benítez International Airport (SCEL)

Arrival

Time 2026-04-26 21:26
Airport Diego Aracena International Airport (SCDA)
Time Latitude Longitude Altitude Speed Heading
2026-04-26 18:15 -33.39559 -70.78966 1570 ft 0 kts 184°
2026-04-26 18:17 -33.39557 -70.78966 1570 ft 2 kts 184°
2026-04-26 18:18 -33.39535 -70.78964 1570 ft 3 kts 183°
2026-04-26 18:18 -33.39515 -70.78962 1570 ft 4 kts 198°
2026-04-26 18:18 -33.39496 -70.78949 1570 ft 4 kts 240°
2026-04-26 18:18 -33.39491 -70.78929 1570 ft 0 kts 268°
2026-04-26 18:21 -33.39492 -70.78945 1570 ft 3 kts 268°
2026-04-26 18:22 -33.39493 -70.78982 1570 ft 5 kts 268°
2026-04-26 18:22 -33.39494 -70.79035 1570 ft 7 kts 268°
2026-04-26 18:22 -33.39496 -70.79105 1570 ft 9 kts 268°
2026-04-26 18:22 -33.39499 -70.79192 1570 ft 11 kts 268°
2026-04-26 18:23 -33.39502 -70.79295 1570 ft 13 kts 268°
2026-04-26 18:23 -33.39506 -70.79414 1570 ft 15 kts 268°
2026-04-26 18:23 -33.39512 -70.79547 1570 ft 17 kts 266°
2026-04-26 18:23 -33.39522 -70.79693 1570 ft 18 kts 265°
2026-04-26 18:24 -33.39528 -70.79852 1570 ft 20 kts 268°
2026-04-26 18:24 -33.39519 -70.80019 1571 ft 18 kts 301°
2026-04-26 18:24 -33.39443 -70.80048 1571 ft 19 kts
2026-04-26 18:24 -33.39305 -70.80054 1572 ft 21 kts 357°
2026-04-26 18:25 -33.39156 -70.80064 1572 ft 22 kts 357°
2026-04-26 18:25 -33.38998 -70.80073 1572 ft 23 kts 357°
2026-04-26 18:25 -33.38830 -70.80082 1572 ft 25 kts 357°
2026-04-26 18:25 -33.38652 -70.80093 1572 ft 26 kts 357°
2026-04-26 18:26 -33.38468 -70.80103 1572 ft 18 kts 358°
2026-04-26 18:26 -33.38342 -70.80110 1571 ft 19 kts 357°
2026-04-26 18:26 -33.38207 -70.80118 1571 ft 20 kts 358°
2026-04-26 18:26 -33.38063 -70.80124 1571 ft 22 kts 358°
2026-04-26 18:27 -33.37906 -70.80131 1571 ft 23 kts 358°
2026-04-26 18:27 -33.37744 -70.80137 1572 ft 24 kts 358°
2026-04-26 18:27 -33.37569 -70.80144 1572 ft 26 kts 357°
2026-04-26 18:27 -33.37386 -70.80157 1572 ft 27 kts 356°
2026-04-26 18:28 -33.37196 -70.80168 1572 ft 21 kts 355°
2026-04-26 18:28 -33.37148 -70.80184 1572 ft 7 kts 332°
2026-04-26 18:28 -33.37108 -70.80238 1574 ft 10 kts 288°
2026-04-26 18:28 -33.37124 -70.80333 1579 ft 14 kts 233°
2026-04-26 18:29 -33.37227 -70.80369 1578 ft 30 kts 177°
2026-04-26 18:29 -33.37803 -70.80342 1578 ft 132 kts 177°
2026-04-26 18:29 -33.38931 -70.80273 1801 ft 184 kts 178°
2026-04-26 18:29 -33.40264 -70.80234 2704 ft 198 kts 179°
2026-04-26 18:30 -33.41695 -70.80193 3500 ft 213 kts 179°
2026-04-26 18:30 -33.43244 -70.80139 4010 ft 238 kts 178°
2026-04-26 18:30 -33.44966 -70.80278 4582 ft 258 kts 194°
2026-04-26 18:30 -33.46597 -70.81245 5425 ft 267 kts 218°
2026-04-26 18:31 -33.47759 -70.82972 6393 ft 271 kts 243°
2026-04-26 18:31 -33.48211 -70.85170 7287 ft 276 kts 267°
2026-04-26 18:31 -33.48100 -70.87493 8100 ft 282 kts 273°
2026-04-26 18:31 -33.47905 -70.89851 8667 ft 287 kts 273°
2026-04-26 18:32 -33.47718 -70.92237 9117 ft 288 kts 272°
2026-04-26 18:32 -33.47538 -70.94644 9946 ft 294 kts 275°
2026-04-26 18:32 -33.46952 -70.97053 10499 ft 316 kts 295°
2026-04-26 18:32 -33.45513 -70.99168 10830 ft 343 kts 319°
2026-04-26 18:33 -33.43354 -71.00583 11155 ft 368 kts 339°
2026-04-26 18:33 -33.40826 -71.01474 11469 ft 389 kts 343°
2026-04-26 18:33 -33.38157 -71.02368 11760 ft 407 kts 342°
2026-04-26 18:33 -33.35413 -71.03359 12246 ft 415 kts 341°
2026-04-26 18:34 -33.32678 -71.04393 12875 ft 419 kts 340°
2026-04-26 18:34 -33.29893 -71.05462 13519 ft 423 kts 340°
2026-04-26 18:34 -33.27079 -71.06545 14106 ft 426 kts 340°
2026-04-26 18:34 -33.24248 -71.07642 14627 ft 430 kts 339°
2026-04-26 18:35 -33.21395 -71.08755 15149 ft 433 kts 339°
2026-04-26 18:35 -33.18522 -71.09870 15679 ft 436 kts 339°
2026-04-26 18:35 -33.15625 -71.10997 16190 ft 439 kts 339°
2026-04-26 18:35 -33.12707 -71.12127 16661 ft 442 kts 339°
2026-04-26 18:36 -33.09769 -71.13274 17126 ft 446 kts 339°
2026-04-26 18:36 -33.06812 -71.14425 17592 ft 449 kts 339°
2026-04-26 18:36 -33.03828 -71.15586 18060 ft 452 kts 338°
2026-04-26 18:36 -33.00830 -71.16752 18528 ft 455 kts 338°
2026-04-26 18:37 -32.97820 -71.17925 18989 ft 456 kts 338°
2026-04-26 18:37 -32.94733 -71.18871 19432 ft 462 kts 347°
2026-04-26 18:37 -32.91506 -71.19153 19872 ft 467 kts 355°
2026-04-26 18:37 -32.88241 -71.19208 20311 ft 470 kts 356°
2026-04-26 18:38 -32.84963 -71.19245 20770 ft 472 kts 356°
2026-04-26 18:38 -32.81669 -71.19294 21248 ft 475 kts 356°
2026-04-26 18:38 -32.78354 -71.19352 21745 ft 477 kts 356°
2026-04-26 18:38 -32.75072 -71.19410 22234 ft 479 kts 356°
2026-04-26 18:39 -32.71686 -71.19471 22754 ft 482 kts 356°
2026-04-26 18:39 -32.68369 -71.19531 23235 ft 484 kts 356°
2026-04-26 18:39 -32.64989 -71.19592 23694 ft 487 kts 356°
2026-04-26 18:39 -32.61586 -71.19654 24091 ft 489 kts 356°
2026-04-26 18:40 -32.58176 -71.19716 24554 ft 488 kts 356°
2026-04-26 18:40 -32.54781 -71.19777 25090 ft 486 kts 355°
2026-04-26 18:40 -32.51394 -71.19840 25570 ft 486 kts 355°
2026-04-26 18:40 -32.48019 -71.19902 26059 ft 485 kts 355°
2026-04-26 18:41 -32.44648 -71.19963 26568 ft 484 kts 355°
2026-04-26 18:41 -32.41286 -71.20023 27052 ft 483 kts 355°
2026-04-26 18:41 -32.37930 -71.20084 27557 ft 482 kts 355°
2026-04-26 18:41 -32.34595 -71.20144 28061 ft 479 kts 355°
2026-04-26 18:42 -32.31262 -71.20205 28490 ft 479 kts 355°
2026-04-26 18:42 -32.27922 -71.20266 28969 ft 479 kts 355°
2026-04-26 18:42 -32.24597 -71.20326 29415 ft 478 kts 354°
2026-04-26 18:42 -32.21268 -71.20385 29901 ft 477 kts 354°
2026-04-26 18:43 -32.17996 -71.20444 30342 ft 476 kts 353°
2026-04-26 18:43 -32.14688 -71.20503 30772 ft 474 kts 353°
2026-04-26 18:43 -32.11386 -71.20562 31203 ft 473 kts 353°
2026-04-26 18:43 -32.08097 -71.20622 31623 ft 471 kts 353°
2026-04-26 18:44 -32.04824 -71.20679 32042 ft 470 kts 353°
2026-04-26 18:44 -32.01558 -71.20736 32451 ft 468 kts 353°
2026-04-26 18:44 -31.98300 -71.20794 32815 ft 466 kts 352°
2026-04-26 18:44 -31.95098 -71.20853 33204 ft 465 kts 352°
2026-04-26 18:45 -31.91869 -71.20911 33601 ft 463 kts 352°
2026-04-26 18:45 -31.88657 -71.20967 33991 ft 461 kts 352°
2026-04-26 18:45 -31.85454 -71.21025 34310 ft 460 kts 351°
2026-04-26 18:45 -31.82259 -71.21084 34575 ft 459 kts 351°
2026-04-26 18:46 -31.79059 -71.21141 34774 ft 461 kts 352°
2026-04-26 18:46 -31.75834 -71.21028 34974 ft 465 kts 355°
2026-04-26 18:46 -31.72593 -71.20836 35160 ft 465 kts 355°
2026-04-26 18:46 -31.69367 -71.20637 35501 ft 462 kts 354°
2026-04-26 18:47 -31.66162 -71.20439 35787 ft 461 kts 354°
2026-04-26 18:47 -31.62965 -71.20244 36018 ft 460 kts 354°
2026-04-26 18:47 -31.59807 -71.20051 36214 ft 459 kts 354°
2026-04-26 18:47 -31.56618 -71.19858 36415 ft 459 kts 354°
2026-04-26 18:48 -31.53433 -71.19666 36640 ft 458 kts 354°
2026-04-26 18:48 -31.50246 -71.19473 36833 ft 459 kts 354°
2026-04-26 18:48 -31.47056 -71.19281 36989 ft 458 kts 353°
2026-04-26 18:48 -31.43874 -71.19090 37193 ft 457 kts 353°
2026-04-26 18:49 -31.40695 -71.18899 37401 ft 457 kts 353°
2026-04-26 18:49 -31.37517 -71.18707 37605 ft 457 kts 353°
2026-04-26 18:49 -31.34347 -71.18516 37817 ft 456 kts 352°
2026-04-26 18:49 -31.31173 -71.18323 37996 ft 456 kts 353°
2026-04-26 18:50 -31.24827 -71.17939 38042 ft 456 kts 352°
2026-04-26 18:50 -31.18498 -71.17560 37975 ft 455 kts 352°
2026-04-26 18:51 -31.12213 -71.17182 37990 ft 455 kts 352°
2026-04-26 18:51 -31.05887 -71.16801 37982 ft 455 kts 352°
2026-04-26 18:52 -30.99567 -71.16428 37985 ft 455 kts 352°
2026-04-26 18:52 -30.93231 -71.16044 37930 ft 455 kts 351°
2026-04-26 18:53 -30.86917 -71.15656 37958 ft 453 kts 351°
2026-04-26 18:53 -30.80616 -71.15273 37965 ft 453 kts 351°
2026-04-26 18:54 -30.74318 -71.14898 37961 ft 453 kts 352°
2026-04-26 18:54 -30.68013 -71.14518 37968 ft 453 kts 351°
2026-04-26 18:55 -30.61724 -71.14139 37959 ft 451 kts 351°
2026-04-26 18:55 -30.55441 -71.13767 37980 ft 452 kts 351°
2026-04-26 18:56 -30.49199 -71.13401 37983 ft 452 kts 351°
2026-04-26 18:56 -30.42918 -71.13028 37989 ft 452 kts 351°
2026-04-26 18:57 -30.37658 -71.12717 37947 ft 451 kts 350°
2026-04-26 18:57 -30.30353 -71.12297 37989 ft 452 kts 350°
2026-04-26 18:58 -30.24063 -71.11907 37994 ft 454 kts 352°
2026-04-26 18:58 -30.17744 -71.11245 38006 ft 456 kts 353°
2026-04-26 18:59 -30.11449 -71.10559 37965 ft 457 kts 352°
2026-04-26 18:59 -30.05138 -71.09879 38012 ft 455 kts 352°
2026-04-26 19:00 -29.98821 -71.09200 38014 ft 456 kts 352°
2026-04-26 19:00 -29.92499 -71.08519 38024 ft 456 kts 352°
2026-04-26 19:01 -29.86183 -71.07843 38018 ft 455 kts 352°
2026-04-26 19:01 -29.79872 -71.07169 38017 ft 456 kts 352°
2026-04-26 19:02 -29.73556 -71.06493 38023 ft 455 kts 352°
2026-04-26 19:02 -29.68307 -71.05931 38016 ft 455 kts 352°
2026-04-26 19:03 -29.60967 -71.05149 38017 ft 456 kts 352°
2026-04-26 19:03 -29.54657 -71.04478 37999 ft 456 kts 352°
2026-04-26 19:04 -29.48355 -71.03805 38018 ft 454 kts 352°
2026-04-26 19:04 -29.42080 -71.02993 38022 ft 458 kts 354°
2026-04-26 19:05 -29.32599 -71.01499 37991 ft 458 kts 354°
2026-04-26 19:06 -29.26284 -71.00557 37969 ft 454 kts 352°
2026-04-26 19:06 -29.20013 -70.99953 37998 ft 451 kts 351°
2026-04-26 19:07 -29.13754 -70.99375 37989 ft 451 kts 351°
2026-04-26 19:07 -29.07503 -70.98790 37987 ft 450 kts 351°
2026-04-26 19:08 -29.01240 -70.98204 37953 ft 451 kts 351°
2026-04-26 19:08 -28.94990 -70.97617 37987 ft 450 kts 351°
2026-04-26 19:09 -28.88772 -70.97035 38002 ft 451 kts 351°
2026-04-26 19:09 -28.82475 -70.96447 37999 ft 451 kts 351°
2026-04-26 19:10 -28.76265 -70.95865 38022 ft 451 kts 351°
2026-04-26 19:10 -28.70010 -70.95284 37977 ft 450 kts 351°
2026-04-26 19:11 -28.63754 -70.94702 38019 ft 451 kts 351°
2026-04-26 19:11 -28.57534 -70.94122 38024 ft 450 kts 351°
2026-04-26 19:12 -28.51284 -70.93543 38028 ft 450 kts 351°
2026-04-26 19:12 -28.46085 -70.93035 38030 ft 451 kts 352°
2026-04-26 19:13 -28.39832 -70.92371 38020 ft 450 kts 352°
2026-04-26 19:13 -28.33593 -70.91721 38042 ft 450 kts 352°
2026-04-26 19:14 -28.27368 -70.91075 38038 ft 449 kts 352°
2026-04-26 19:14 -28.21133 -70.90416 38045 ft 450 kts 352°
2026-04-26 19:15 -28.14894 -70.89749 38005 ft 450 kts 352°
2026-04-26 19:15 -28.08659 -70.89085 38032 ft 449 kts 352°
2026-04-26 19:16 -28.02433 -70.88422 38041 ft 449 kts 352°
2026-04-26 19:16 -27.96242 -70.87765 38045 ft 449 kts 352°
2026-04-26 19:17 -27.89993 -70.87102 38045 ft 451 kts 352°
2026-04-26 19:17 -27.83761 -70.86438 38029 ft 450 kts 352°
2026-04-26 19:18 -27.77526 -70.85781 38045 ft 450 kts 352°
2026-04-26 19:18 -27.71298 -70.85122 38046 ft 449 kts 352°
2026-04-26 19:19 -27.65072 -70.84464 38045 ft 449 kts 352°
2026-04-26 19:19 -27.58847 -70.83805 38000 ft 449 kts 353°
2026-04-26 19:20 -27.52623 -70.83146 38038 ft 449 kts 353°
2026-04-26 19:20 -27.46436 -70.82496 38043 ft 449 kts 353°
2026-04-26 19:21 -27.40207 -70.81841 38041 ft 449 kts 353°
2026-04-26 19:21 -27.33978 -70.81186 38043 ft 449 kts 353°
2026-04-26 19:22 -27.27741 -70.80533 38023 ft 449 kts 353°
2026-04-26 19:22 -27.21506 -70.79881 38037 ft 449 kts 353°
2026-04-26 19:23 -27.15315 -70.79233 38041 ft 450 kts 353°
2026-04-26 19:23 -27.09084 -70.78582 38044 ft 449 kts 353°
2026-04-26 19:24 -27.02854 -70.77930 38044 ft 449 kts 353°
2026-04-26 19:24 -26.93505 -70.76956 38052 ft 449 kts 353°
2026-04-26 19:25 -26.88325 -70.76416 38047 ft 449 kts 353°
2026-04-26 19:25 -26.81044 -70.75657 38041 ft 449 kts 353°
2026-04-26 19:26 -26.74842 -70.75014 38037 ft 449 kts 353°
2026-04-26 19:26 -26.68615 -70.74367 38034 ft 449 kts 354°
2026-04-26 19:27 -26.62363 -70.73413 38040 ft 455 kts 357°
2026-04-26 19:27 -26.56101 -70.72339 38039 ft 455 kts 357°
2026-04-26 19:28 -26.49842 -70.71272 38038 ft 455 kts 357°
2026-04-26 19:28 -26.43588 -70.70290 38041 ft 449 kts 353°
2026-04-26 19:29 -26.37370 -70.69733 38031 ft 447 kts 353°
2026-04-26 19:29 -26.31206 -70.69205 38037 ft 447 kts 353°
2026-04-26 19:30 -26.24992 -70.68660 38037 ft 447 kts 353°
2026-04-26 19:30 -26.19831 -70.68207 38037 ft 447 kts 353°
2026-04-26 19:31 -26.12572 -70.67570 38004 ft 447 kts 354°
2026-04-26 19:31 -26.06378 -70.67024 38040 ft 446 kts 354°
2026-04-26 19:32 -26.00172 -70.66481 38039 ft 446 kts 354°
2026-04-26 19:32 -25.94023 -70.65943 38038 ft 446 kts 354°
2026-04-26 19:33 -25.87819 -70.65400 38041 ft 446 kts 354°
2026-04-26 19:33 -25.81622 -70.64859 38017 ft 446 kts 354°
2026-04-26 19:34 -25.75435 -70.64320 38038 ft 446 kts 354°
2026-04-26 19:34 -25.69292 -70.63785 38035 ft 446 kts 354°
2026-04-26 19:35 -25.63106 -70.63246 38040 ft 445 kts 354°
2026-04-26 19:35 -25.56919 -70.62708 38035 ft 445 kts 354°
2026-04-26 19:36 -25.51777 -70.62262 38020 ft 445 kts 354°
2026-04-26 19:36 -25.44564 -70.61636 38035 ft 444 kts 354°
2026-04-26 19:37 -25.38425 -70.61107 38041 ft 445 kts 354°
2026-04-26 19:37 -25.32253 -70.60571 38038 ft 445 kts 354°
2026-04-26 19:38 -25.26085 -70.60038 38034 ft 444 kts 354°
2026-04-26 19:38 -25.19916 -70.59506 38025 ft 444 kts 355°
2026-04-26 19:39 -25.13755 -70.58976 38034 ft 444 kts 355°
2026-04-26 19:39 -25.07628 -70.58450 38035 ft 444 kts 355°
2026-04-26 19:40 -25.01472 -70.57920 38032 ft 444 kts 355°
2026-04-26 19:40 -24.95308 -70.57390 38032 ft 444 kts 355°
2026-04-26 19:41 -24.89144 -70.56860 38026 ft 444 kts 355°
2026-04-26 19:41 -24.84020 -70.56421 38030 ft 444 kts 355°
2026-04-26 19:42 -24.76843 -70.56059 38026 ft 438 kts 351°
2026-04-26 19:42 -24.70750 -70.56125 38027 ft 438 kts 350°
2026-04-26 19:43 -24.64691 -70.56175 37999 ft 438 kts 351°
2026-04-26 19:43 -24.58589 -70.56210 38017 ft 439 kts 351°
2026-04-26 19:44 -24.52475 -70.56244 38029 ft 439 kts 351°
2026-04-26 19:44 -24.46363 -70.56282 38026 ft 439 kts 351°
2026-04-26 19:45 -24.40282 -70.56320 38024 ft 439 kts 351°
2026-04-26 19:45 -24.34171 -70.56358 38004 ft 439 kts 351°
2026-04-26 19:46 -24.28052 -70.56399 38019 ft 440 kts 352°
2026-04-26 19:46 -24.21933 -70.56435 38019 ft 440 kts 352°
2026-04-26 19:47 -24.16840 -70.56463 38027 ft 440 kts 352°
2026-04-26 19:47 -24.09680 -70.56507 38027 ft 440 kts 352°
2026-04-26 19:48 -24.03567 -70.56544 38019 ft 440 kts 352°
2026-04-26 19:48 -23.97486 -70.56582 38020 ft 440 kts 351°
2026-04-26 19:49 -23.91353 -70.56619 38019 ft 440 kts 352°
2026-04-26 19:49 -23.85235 -70.56657 38024 ft 440 kts 352°
2026-04-26 19:50 -23.79107 -70.56693 38025 ft 440 kts 352°
2026-04-26 19:50 -23.72971 -70.56672 38015 ft 441 kts 353°
2026-04-26 19:51 -23.66874 -70.56640 38022 ft 441 kts 353°
2026-04-26 19:51 -23.60732 -70.56613 38028 ft 441 kts 352°
2026-04-26 19:52 -23.54586 -70.56587 38024 ft 441 kts 353°
2026-04-26 19:52 -23.48439 -70.56561 38042 ft 441 kts 353°
2026-04-26 19:53 -23.42297 -70.56535 38004 ft 442 kts 353°
2026-04-26 19:53 -23.36147 -70.56508 38018 ft 442 kts 353°
2026-04-26 19:54 -23.29999 -70.56480 38022 ft 442 kts 353°
2026-04-26 19:54 -23.23852 -70.56454 38027 ft 441 kts 353°
2026-04-26 19:55 -23.17702 -70.56427 38023 ft 442 kts 353°
2026-04-26 19:55 -23.11592 -70.56403 38017 ft 442 kts 353°
2026-04-26 19:56 -23.05438 -70.56375 38023 ft 442 kts 353°
2026-04-26 19:56 -22.99287 -70.56346 38025 ft 442 kts 353°
2026-04-26 19:57 -22.93131 -70.56321 38024 ft 442 kts 353°
2026-04-26 19:57 -22.87024 -70.56255 38014 ft 439 kts 359°
2026-04-26 19:58 -22.84033 -70.55493 37993 ft 449 kts 16°
2026-04-26 19:58 -22.81304 -70.53791 37994 ft 461 kts 33°
2026-04-26 19:58 -22.79047 -70.51242 38011 ft 473 kts 51°
2026-04-26 19:58 -22.77496 -70.48077 38015 ft 481 kts 68°
2026-04-26 19:59 -22.76777 -70.44526 38022 ft 486 kts 85°
2026-04-26 19:59 -22.76959 -70.40873 38025 ft 488 kts 102°
2026-04-26 19:59 -22.78031 -70.37402 38029 ft 487 kts 119°
2026-04-26 19:59 -22.79910 -70.34376 38031 ft 483 kts 136°
2026-04-26 20:00 -22.81518 -70.32741 38037 ft 477 kts 148°
2026-04-26 20:00 -22.85375 -70.30566 38024 ft 461 kts 171°
2026-04-26 20:00 -22.87437 -70.30118 38019 ft 451 kts 182°
2026-04-26 20:00 -22.90506 -70.30259 38025 ft 435 kts 198°
2026-04-26 20:01 -22.97430 -70.31685 38017 ft 442 kts 191°
2026-04-26 20:01 -23.03563 -70.32043 38006 ft 437 kts 191°
2026-04-26 20:02 -23.08634 -70.32474 38004 ft 432 kts 197°
2026-04-26 20:02 -23.11474 -70.33351 38004 ft 418 kts 211°
2026-04-26 20:02 -23.13166 -70.34317 38025 ft 413 kts 218°
2026-04-26 20:03 -23.16103 -70.36857 38017 ft 402 kts 234°
2026-04-26 20:03 -23.17621 -70.39356 38014 ft 393 kts 249°
2026-04-26 20:03 -23.18434 -70.42157 38012 ft 388 kts 263°
2026-04-26 20:03 -23.18542 -70.45053 38006 ft 382 kts 277°
2026-04-26 20:04 -23.17909 -70.47841 38020 ft 382 kts 289°
2026-04-26 20:04 -23.16739 -70.50439 38018 ft 385 kts 299°
2026-04-26 20:04 -23.15085 -70.52749 38022 ft 391 kts 310°
2026-04-26 20:04 -23.12959 -70.54632 38013 ft 400 kts 323°
2026-04-26 20:05 -23.10420 -70.55936 38019 ft 410 kts 336°
2026-04-26 20:05 -23.07577 -70.56515 38023 ft 423 kts 350°
2026-04-26 20:05 -23.01592 -70.56443 38031 ft 433 kts 354°
2026-04-26 20:06 -22.95567 -70.56339 38021 ft 430 kts 353°
2026-04-26 20:06 -22.89615 -70.56303 38020 ft 427 kts 353°
2026-04-26 20:07 -22.83732 -70.55321 37992 ft 449 kts 18°
2026-04-26 20:07 -22.81065 -70.53499 38005 ft 462 kts 36°
2026-04-26 20:07 -22.78907 -70.50865 38024 ft 473 kts 53°
2026-04-26 20:08 -22.77464 -70.47625 38031 ft 483 kts 70°
2026-04-26 20:08 -22.76862 -70.44027 38034 ft 490 kts 87°
2026-04-26 20:08 -22.77161 -70.40346 38028 ft 492 kts 104°
2026-04-26 20:08 -22.78342 -70.36893 38020 ft 488 kts 121°
2026-04-26 20:09 -22.80295 -70.33949 38022 ft 477 kts 139°
2026-04-26 20:09 -22.82851 -70.31738 38025 ft 466 kts 156°
2026-04-26 20:09 -22.85808 -70.30409 38022 ft 455 kts 173°
2026-04-26 20:09 -22.88901 -70.30050 38020 ft 442 kts 190°
2026-04-26 20:10 -22.91884 -70.30608 38019 ft 431 kts 201°
2026-04-26 20:10 -22.94802 -70.31383 38019 ft 435 kts 198°
2026-04-26 20:10 -23.00833 -70.32152 38004 ft 435 kts 192°
2026-04-26 20:11 -23.06903 -70.32471 38007 ft 437 kts 189°
2026-04-26 20:11 -23.09882 -70.32885 38003 ft 426 kts 201°
2026-04-26 20:12 -23.14956 -70.35778 38024 ft 407 kts 226°
2026-04-26 20:12 -23.16810 -70.37983 38019 ft 396 kts 241°
2026-04-26 20:12 -23.18005 -70.40644 38017 ft 389 kts 256°
2026-04-26 20:12 -23.18503 -70.43511 38014 ft 385 kts 268°
2026-04-26 20:13 -23.18334 -70.46403 38011 ft 383 kts 281°
2026-04-26 20:13 -23.17467 -70.49127 38018 ft 383 kts 294°
2026-04-26 20:13 -23.16035 -70.51572 38017 ft 387 kts 305°
2026-04-26 20:13 -23.14137 -70.53681 38000 ft 394 kts 316°
2026-04-26 20:14 -23.11806 -70.55297 38017 ft 404 kts 329°
2026-04-26 20:14 -23.09118 -70.56287 38020 ft 415 kts 342°
2026-04-26 20:14 -23.06196 -70.56549 38028 ft 426 kts 353°
2026-04-26 20:15 -23.00237 -70.56422 38029 ft 432 kts 354°
2026-04-26 20:15 -22.94213 -70.56344 38025 ft 432 kts 353°
2026-04-26 20:16 -22.88239 -70.56301 38021 ft 427 kts 353°
2026-04-26 20:16 -22.85261 -70.55900 38012 ft 440 kts
2026-04-26 20:16 -22.82420 -70.54541 38000 ft 454 kts 27°
2026-04-26 20:16 -22.79981 -70.52305 38014 ft 467 kts 44°
2026-04-26 20:17 -22.78158 -70.49349 38016 ft 477 kts 62°
2026-04-26 20:17 -22.77135 -70.45966 38020 ft 483 kts 78°
2026-04-26 20:17 -22.76977 -70.42325 38023 ft 487 kts 96°
2026-04-26 20:17 -22.77384 -70.39882 38020 ft 488 kts 107°
2026-04-26 20:18 -22.79310 -70.35528 38029 ft 484 kts 130°
2026-04-26 20:18 -22.81609 -70.32911 38030 ft 475 kts 147°
2026-04-26 20:18 -22.84415 -70.31108 38028 ft 465 kts 164°
2026-04-26 20:18 -22.87490 -70.30240 38020 ft 450 kts 181°
2026-04-26 20:19 -22.90552 -70.30356 38017 ft 433 kts 198°
2026-04-26 20:19 -22.96406 -70.31807 38017 ft 439 kts 193°
2026-04-26 20:20 -23.02524 -70.32039 38014 ft 444 kts 187°
2026-04-26 20:20 -23.08633 -70.32323 37999 ft 428 kts 200°
2026-04-26 20:20 -23.11398 -70.33350 38006 ft 415 kts 213°
2026-04-26 20:21 -23.13849 -70.34953 38027 ft 410 kts 221°
2026-04-26 20:21 -23.15970 -70.36963 38022 ft 400 kts 234°
2026-04-26 20:21 -23.17478 -70.39454 38018 ft 391 kts 249°
2026-04-26 20:21 -23.18286 -70.42245 38017 ft 386 kts 263°
2026-04-26 20:22 -23.18419 -70.45139 38013 ft 383 kts 275°
2026-04-26 20:22 -23.17875 -70.47956 38018 ft 381 kts 289°
2026-04-26 20:22 -23.16675 -70.50529 38021 ft 384 kts 300°
2026-04-26 20:22 -23.15011 -70.52771 38020 ft 389 kts 311°
2026-04-26 20:23 -23.12872 -70.54628 38015 ft 398 kts 323°
2026-04-26 20:23 -23.10332 -70.55919 38019 ft 409 kts 336°
2026-04-26 20:23 -23.07499 -70.56497 38023 ft 421 kts 350°
2026-04-26 20:24 -23.01536 -70.56430 38029 ft 432 kts 354°
2026-04-26 20:24 -22.95526 -70.56324 38023 ft 431 kts 353°
2026-04-26 20:25 -22.89530 -70.56295 38022 ft 428 kts 353°
2026-04-26 20:25 -22.83622 -70.55260 37988 ft 448 kts 19°
2026-04-26 20:25 -22.80978 -70.53404 38003 ft 461 kts 37°
2026-04-26 20:26 -22.78859 -70.50749 38019 ft 472 kts 54°
2026-04-26 20:26 -22.77474 -70.47548 38028 ft 481 kts 71°
2026-04-26 20:26 -22.76913 -70.43954 38026 ft 488 kts 88°
2026-04-26 20:26 -22.77255 -70.40290 38029 ft 490 kts 105°
2026-04-26 20:27 -22.78476 -70.36866 38023 ft 486 kts 122°
2026-04-26 20:27 -22.80470 -70.33954 38026 ft 478 kts 139°
2026-04-26 20:27 -22.83069 -70.31770 38030 ft 470 kts 156°
2026-04-26 20:27 -22.86051 -70.30475 38022 ft 456 kts 174°
2026-04-26 20:28 -22.89146 -70.30152 38020 ft 440 kts 191°
2026-04-26 20:28 -22.92113 -70.30741 38023 ft 429 kts 202°
2026-04-26 20:28 -22.95017 -70.31525 38022 ft 433 kts 198°
2026-04-26 20:29 -23.01095 -70.32092 38011 ft 442 kts 188°
2026-04-26 20:29 -23.07251 -70.32146 38005 ft 439 kts 190°
2026-04-26 20:29 -23.10129 -70.32746 37999 ft 420 kts 207°
2026-04-26 20:30 -23.12701 -70.34135 38027 ft 410 kts 219°
2026-04-26 20:30 -23.16788 -70.38241 38016 ft 394 kts 243°
2026-04-26 20:30 -23.17915 -70.40907 38014 ft 386 kts 256°
2026-04-26 20:31 -23.18292 -70.43746 38011 ft 378 kts 272°
2026-04-26 20:31 -23.17951 -70.46571 38012 ft 378 kts 283°
2026-04-26 20:31 -23.17089 -70.49267 38019 ft 380 kts 293°
2026-04-26 20:31 -23.15716 -70.51729 38018 ft 385 kts 304°
2026-04-26 20:32 -23.13818 -70.53818 38006 ft 394 kts 316°
2026-04-26 20:32 -23.11478 -70.55414 38014 ft 403 kts 330°
2026-04-26 20:32 -23.08768 -70.56333 38016 ft 415 kts 344°
2026-04-26 20:32 -23.05885 -70.56534 38027 ft 426 kts 353°
2026-04-26 20:33 -23.02905 -70.56473 38036 ft 431 kts 354°
2026-04-26 20:33 -22.96902 -70.56348 38025 ft 431 kts 353°
2026-04-26 20:34 -22.90922 -70.56303 38019 ft 427 kts 353°
2026-04-26 20:34 -22.84991 -70.55814 38011 ft 440 kts 11°
2026-04-26 20:34 -22.82187 -70.54380 37998 ft 454 kts 28°
2026-04-26 20:35 -22.79807 -70.52084 38012 ft 466 kts 46°
2026-04-26 20:35 -22.78059 -70.49086 38014 ft 476 kts 63°
2026-04-26 20:35 -22.77114 -70.45636 38016 ft 482 kts 81°
2026-04-26 20:35 -22.77060 -70.42005 38016 ft 484 kts 98°
2026-04-26 20:36 -22.77904 -70.38492 38020 ft 482 kts 115°
2026-04-26 20:36 -22.79549 -70.35412 38022 ft 476 kts 132°
2026-04-26 20:36 -22.81889 -70.32936 38022 ft 467 kts 150°
2026-04-26 20:36 -22.84715 -70.31285 38020 ft 457 kts 167°
2026-04-26 20:37 -22.87769 -70.30582 38017 ft 444 kts 184°
2026-04-26 20:37 -22.90793 -70.30840 38020 ft 432 kts 198°
2026-04-26 20:37 -22.93732 -70.31514 38024 ft 432 kts 198°
2026-04-26 20:38 -22.99785 -70.32150 38015 ft 441 kts 188°
2026-04-26 20:38 -23.05907 -70.32322 38008 ft 434 kts 191°
2026-04-26 20:39 -23.11630 -70.33779 38012 ft 412 kts 213°
2026-04-26 20:39 -23.16060 -70.37453 38020 ft 397 kts 237°
2026-04-26 20:39 -23.17468 -70.39979 38017 ft 388 kts 251°
2026-04-26 20:40 -23.18178 -70.42778 38017 ft 383 kts 264°
2026-04-26 20:40 -23.18209 -70.45661 38014 ft 381 kts 277°
2026-04-26 20:40 -23.17549 -70.48430 38018 ft 379 kts 290°
2026-04-26 20:40 -23.16295 -70.50954 38012 ft 382 kts 301°
2026-04-26 20:41 -23.14556 -70.53159 38019 ft 388 kts 313°
2026-04-26 20:41 -23.12366 -70.54923 38017 ft 398 kts 325°
2026-04-26 20:41 -23.09769 -70.56085 38019 ft 409 kts 339°
2026-04-26 20:41 -23.06909 -70.56517 38021 ft 421 kts 352°
2026-04-26 20:42 -23.03984 -70.56491 38026 ft 429 kts 354°
2026-04-26 20:42 -22.97998 -70.56354 38023 ft 430 kts 353°
2026-04-26 20:43 -22.92021 -70.56303 38023 ft 428 kts 353°
2026-04-26 20:43 -22.86053 -70.56098 38010 ft 434 kts
2026-04-26 20:43 -22.83158 -70.55012 37992 ft 448 kts 22°
2026-04-26 20:44 -22.80600 -70.53017 38007 ft 461 kts 39°
2026-04-26 20:44 -22.78602 -70.50253 38021 ft 472 kts 57°
2026-04-26 20:44 -22.77366 -70.46986 38019 ft 479 kts 74°
2026-04-26 20:44 -22.76971 -70.43385 38022 ft 486 kts 91°
2026-04-26 20:45 -22.77480 -70.39767 38024 ft 488 kts 108°
2026-04-26 20:45 -22.78859 -70.36424 38020 ft 484 kts 126°
2026-04-26 20:45 -22.80981 -70.33644 38020 ft 475 kts 143°
2026-04-26 20:45 -22.83668 -70.31631 38027 ft 465 kts 160°
2026-04-26 20:46 -22.86686 -70.30533 38025 ft 451 kts 177°
2026-04-26 20:46 -22.89757 -70.30416 38020 ft 435 kts 194°
2026-04-26 20:46 -22.92651 -70.31166 38019 ft 426 kts 203°
2026-04-26 20:47 -22.97548 -70.32158 38019 ft 437 kts 191°
2026-04-26 20:47 -23.03675 -70.32295 38017 ft 442 kts 187°
2026-04-26 20:48 -23.10645 -70.32959 38002 ft 418 kts 208°
2026-04-26 20:48 -23.12377 -70.33892 38027 ft 407 kts 220°
2026-04-26 20:48 -23.15282 -70.36417 38027 ft 400 kts 232°
2026-04-26 20:49 -23.17661 -70.40608 38020 ft 386 kts 255°
2026-04-26 20:49 -23.18193 -70.43402 38018 ft 382 kts 267°
2026-04-26 20:49 -23.18070 -70.46277 38016 ft 379 kts 281°
2026-04-26 20:49 -23.17269 -70.48993 38017 ft 379 kts 293°
2026-04-26 20:50 -23.15915 -70.51455 38014 ft 382 kts 303°
2026-04-26 20:50 -23.14083 -70.53573 37997 ft 389 kts 315°
2026-04-26 20:50 -23.11800 -70.55228 38014 ft 400 kts 328°
2026-04-26 20:50 -23.09154 -70.56250 38016 ft 411 kts 341°
2026-04-26 20:51 -23.06263 -70.56549 38022 ft 423 kts 353°
2026-04-26 20:51 -23.00348 -70.56410 38026 ft 429 kts 354°
2026-04-26 20:52 -22.94378 -70.56324 38020 ft 427 kts 353°
2026-04-26 20:52 -22.88476 -70.56291 38021 ft 423 kts 353°
2026-04-26 20:52 -22.85522 -70.55977 38011 ft 435 kts
2026-04-26 20:53 -22.82675 -70.54719 38000 ft 450 kts 25°
2026-04-26 20:53 -22.80206 -70.52569 38012 ft 463 kts 43°
2026-04-26 20:53 -22.78358 -70.49729 38023 ft 473 kts 60°
2026-04-26 20:53 -22.77253 -70.46342 38021 ft 482 kts 77°
2026-04-26 20:54 -22.77022 -70.42701 38033 ft 488 kts 94°
2026-04-26 20:54 -22.77693 -70.39110 38027 ft 487 kts 111°
2026-04-26 20:54 -22.79214 -70.35857 38023 ft 482 kts 129°
2026-04-26 20:54 -22.81446 -70.33210 38026 ft 472 kts 146°
2026-04-26 20:55 -22.84204 -70.31359 38025 ft 462 kts 163°
2026-04-26 20:55 -22.87243 -70.30438 38017 ft 447 kts 180°
2026-04-26 20:55 -22.90278 -70.30498 38010 ft 427 kts 198°
2026-04-26 20:56 -22.95848 -70.32366 38018 ft 422 kts 209°
2026-04-26 20:56 -22.98340 -70.33947 38019 ft 411 kts 226°
2026-04-26 20:56 -23.00240 -70.36211 38021 ft 404 kts 240°
2026-04-26 20:56 -23.01543 -70.38898 38025 ft 402 kts 252°
2026-04-26 20:57 -23.02232 -70.41826 38028 ft 401 kts 264°
2026-04-26 20:57 -23.02272 -70.44846 38020 ft 400 kts 276°
2026-04-26 20:57 -23.01656 -70.47789 38024 ft 401 kts 289°
2026-04-26 20:57 -23.00395 -70.50499 38025 ft 405 kts 301°
2026-04-26 20:58 -22.98545 -70.52830 38025 ft 412 kts 314°
2026-04-26 20:58 -22.96169 -70.54627 38029 ft 421 kts 327°
2026-04-26 20:58 -22.93384 -70.55727 38023 ft 433 kts 341°
2026-04-26 20:58 -22.90386 -70.56034 38021 ft 445 kts 353°
2026-04-26 20:59 -22.87286 -70.55946 38032 ft 447 kts 355°
2026-04-26 20:59 -22.81080 -70.55760 38012 ft 445 kts 354°
2026-04-26 21:00 -22.74888 -70.55659 38023 ft 445 kts 354°
2026-04-26 21:00 -22.68683 -70.55568 38032 ft 445 kts 354°
2026-04-26 21:01 -22.62491 -70.55474 38033 ft 445 kts 354°
2026-04-26 21:01 -22.56337 -70.55383 38025 ft 445 kts 354°
2026-04-26 21:02 -22.50136 -70.55294 38023 ft 446 kts 355°
2026-04-26 21:02 -22.43919 -70.55204 38033 ft 446 kts 355°
2026-04-26 21:03 -22.37707 -70.55113 38031 ft 446 kts 355°
2026-04-26 21:03 -22.31506 -70.55021 38030 ft 446 kts 355°
2026-04-26 21:04 -22.25302 -70.54932 38024 ft 446 kts 355°
2026-04-26 21:04 -22.19143 -70.54842 38014 ft 444 kts 355°
2026-04-26 21:04 -22.16067 -70.54794 37277 ft 444 kts 355°
2026-04-26 21:05 -22.12934 -70.54752 36064 ft 455 kts 355°
2026-04-26 21:05 -22.09745 -70.54707 35057 ft 461 kts 355°
2026-04-26 21:05 -22.06525 -70.54659 34143 ft 464 kts 355°
2026-04-26 21:05 -22.03282 -70.54612 33110 ft 467 kts 355°
2026-04-26 21:06 -22.00004 -70.54564 32023 ft 471 kts 356°
2026-04-26 21:06 -21.96726 -70.54517 31144 ft 471 kts 356°
2026-04-26 21:06 -21.93450 -70.54468 30331 ft 470 kts 356°
2026-04-26 21:06 -21.90204 -70.54407 29401 ft 473 kts 358°
2026-04-26 21:07 -21.86920 -70.53997 28476 ft 477 kts
2026-04-26 21:07 -21.83650 -70.53385 27582 ft 478 kts
2026-04-26 21:07 -21.80367 -70.52762 26655 ft 479 kts
2026-04-26 21:07 -21.77070 -70.52140 25688 ft 481 kts
2026-04-26 21:08 -21.73782 -70.51523 24749 ft 480 kts
2026-04-26 21:08 -21.70497 -70.50911 23950 ft 476 kts
2026-04-26 21:08 -21.67217 -70.50301 23218 ft 475 kts
2026-04-26 21:08 -21.63979 -70.49692 22477 ft 469 kts
2026-04-26 21:09 -21.60787 -70.49089 22008 ft 464 kts
2026-04-26 21:09 -21.57602 -70.48497 21521 ft 470 kts
2026-04-26 21:09 -21.54409 -70.47904 20888 ft 462 kts
2026-04-26 21:09 -21.51244 -70.47316 20214 ft 458 kts
2026-04-26 21:10 -21.48109 -70.46733 19559 ft 455 kts
2026-04-26 21:10 -21.45003 -70.46155 18915 ft 451 kts
2026-04-26 21:10 -21.41923 -70.45581 18221 ft 446 kts
2026-04-26 21:10 -21.38881 -70.45016 17461 ft 442 kts
2026-04-26 21:11 -21.35859 -70.44449 16835 ft 439 kts
2026-04-26 21:11 -21.32864 -70.43881 16243 ft 434 kts
2026-04-26 21:11 -21.29904 -70.43324 15675 ft 430 kts
2026-04-26 21:11 -21.26965 -70.42774 15101 ft 426 kts
2026-04-26 21:12 -21.24062 -70.42235 14598 ft 420 kts
2026-04-26 21:12 -21.21203 -70.41704 14156 ft 414 kts
2026-04-26 21:12 -21.18423 -70.41189 13634 ft 407 kts
2026-04-26 21:12 -21.15649 -70.40679 13012 ft 403 kts
2026-04-26 21:13 -21.12893 -70.40169 12457 ft 401 kts
2026-04-26 21:13 -21.10169 -70.39670 11983 ft 391 kts
2026-04-26 21:13 -21.07533 -70.39184 11701 ft 376 kts
2026-04-26 21:13 -21.05005 -70.38716 11486 ft 361 kts
2026-04-26 21:14 -21.02576 -70.38266 11300 ft 347 kts
2026-04-26 21:14 -21.00243 -70.37840 11112 ft 333 kts
2026-04-26 21:14 -20.98004 -70.37428 10881 ft 319 kts
2026-04-26 21:14 -20.95861 -70.37037 10666 ft 306 kts
2026-04-26 21:15 -20.93784 -70.36658 10246 ft 301 kts
2026-04-26 21:15 -20.91717 -70.36278 9732 ft 301 kts
2026-04-26 21:15 -20.89668 -70.35900 9261 ft 297 kts 10°
2026-04-26 21:15 -20.87675 -70.35533 8875 ft 291 kts 10°
2026-04-26 21:16 -20.85687 -70.35166 8518 ft 288 kts 10°
2026-04-26 21:16 -20.83758 -70.34633 8197 ft 285 kts 19°
2026-04-26 21:16 -20.81886 -70.33933 7897 ft 285 kts 20°
2026-04-26 21:16 -20.80017 -70.33220 7601 ft 285 kts 20°
2026-04-26 21:17 -20.78145 -70.32508 7281 ft 286 kts 20°
2026-04-26 21:17 -20.76265 -70.31797 6949 ft 287 kts 20°
2026-04-26 21:17 -20.74393 -70.31092 6611 ft 284 kts 20°
2026-04-26 21:17 -20.72534 -70.30393 6267 ft 282 kts 19°
2026-04-26 21:18 -20.70693 -70.29701 5922 ft 278 kts 19°
2026-04-26 21:18 -20.68876 -70.29019 5591 ft 275 kts 19°
2026-04-26 21:18 -20.67068 -70.28340 5275 ft 275 kts 19°
2026-04-26 21:18 -20.65267 -70.27665 5022 ft 271 kts 19°
2026-04-26 21:19 -20.63533 -70.27016 4970 ft 256 kts 19°
2026-04-26 21:19 -20.61902 -70.26407 4961 ft 240 kts 18°
2026-04-26 21:19 -20.60313 -70.26081 4910 ft 229 kts
2026-04-26 21:19 -20.58729 -70.26077 4614 ft 227 kts 359°
2026-04-26 21:20 -20.57150 -70.26098 4297 ft 227 kts 359°
2026-04-26 21:20 -20.55593 -70.26113 3975 ft 227 kts 359°
2026-04-26 21:20 -20.54037 -70.26123 3879 ft 222 kts 360°
2026-04-26 21:20 -20.52494 -70.26128 3901 ft 222 kts 360°
2026-04-26 21:21 -20.50966 -70.26135 3927 ft 213 kts 360°
2026-04-26 21:21 -20.49540 -70.26135 3932 ft 201 kts
2026-04-26 21:21 -20.48143 -70.26134 3946 ft 201 kts 360°
2026-04-26 21:21 -20.46745 -70.26137 3807 ft 200 kts 360°
2026-04-26 21:22 -20.45365 -70.26062 3496 ft 198 kts 13°
2026-04-26 21:22 -20.44109 -70.25493 3169 ft 197 kts 33°
2026-04-26 21:22 -20.43116 -70.24486 2852 ft 198 kts 53°
2026-04-26 21:23 -20.42339 -70.21740 2457 ft 185 kts 92°
2026-04-26 21:23 -20.42618 -70.20464 2318 ft 173 kts 112°
2026-04-26 21:23 -20.43214 -70.19369 2045 ft 168 kts 129°
2026-04-26 21:23 -20.44036 -70.18529 1797 ft 158 kts 146°
2026-04-26 21:24 -20.44998 -70.17994 1581 ft 155 kts 162°
2026-04-26 21:24 -20.46036 -70.17765 1370 ft 148 kts 177°
2026-04-26 21:24 -20.47037 -70.17789 1160 ft 145 kts 185°
2026-04-26 21:24 -20.48042 -70.17852 966 ft 144 kts 184°
2026-04-26 21:25 -20.49045 -70.17904 766 ft 143 kts 185°
2026-04-26 21:25 -20.50043 -70.17958 555 ft 144 kts 184°
2026-04-26 21:25 -20.51037 -70.17997 394 ft 142 kts 183°
2026-04-26 21:25 -20.52030 -70.18041 209 ft 143 kts 185°
2026-04-26 21:26 -20.52955 -70.18097 181 ft 119 kts 184°
2026-04-26 21:26 -20.53594 -70.18131 179 ft 67 kts 182°
2026-04-26 21:26 -20.53986 -70.18153 180 ft 50 kts 183°
2026-04-26 21:26 -20.54214 -70.18163 180 ft 23 kts 177°
2026-04-26 21:27 -20.54376 -70.18131 182 ft 25 kts 159°
2026-04-26 21:27 -20.54522 -70.18047 180 ft 23 kts 148°
2026-04-26 21:27 -20.54637 -70.18010 180 ft 15 kts 182°
2026-04-26 21:27 -20.54691 -70.18012 180 ft 1 kts 175°
2026-04-26 21:28 -20.54707 -70.18004 180 ft 4 kts 135°
2026-04-26 21:28 -20.54715 -70.17962 180 ft 7 kts 92°
2026-04-26 21:28 -20.54717 -70.17930 180 ft 1 kts 92°
2026-04-26 21:28 -20.54717 -70.17921 180 ft 0 kts 93°